Weather History for KLBX - September, 2013

Change the Weather History Date:

Tuesday, September 10, 2013

  Actual Average Record
Temperature  
Mean Temperature 80 °F -  
Max Temperature 89 °F 87 °F 95 °F (2011)
Min Temperature 73 °F 71 °F 63 °F (2012)
Cooling Degree Days 16    
Growing Degree Days 30 (Base 50)    
Moisture  
Dew Point 73 °F    
Average Humidity 84    
Maximum Humidity 97    
Minimum Humidity 59    
Precipitation  
Precipitation 0.51 in - - ()
Sea Level Pressure  
Sea Level Pressure 30.00 in    
Wind  
Wind Speed 5 mph (East)    
Max Wind Speed 17 mph    
Max Gust Speed 24 mph    
Visibility 9 miles    
Events Rain , Thunderstorm    
Averages and records for this station are not official NWS values.
T = Trace of Precipitation, MM = Missing Value Source: NWS Daily Summary

Daily Weather History Graph

Daily Weather History Graph

Search for Another Location

Airport or City:

Trip Planner

Search our weather history database for the weather conditions in past years. The results will help you decide how hot, cold, wet, or windy it might be!

Date:

Astronomy

Sep. 10, 2013 Rise Set
Actual Time 7:04 AM CDT 7:32 PM CDT
Civil Twilight 6:40 AM CDT 7:56 PM CDT
Nautical Twilight 6:12 AM CDT 8:24 PM CDT
Astronomical Twilight 5:44 AM CDT 8:52 PM CDT
Moon 12:03 PM CDT (9/10) 11:05 PM CDT (9/10)
Length of Visible Light 13h 16m
Length of Day
12h 28m
Waxing Crescent, 28% of the Moon is Illuminated
Sep 10
Waxing Crescent
Sep 12
First Quarter
Sep 19
Full
Sep 26
Last Quarter
Oct 4
New

Hourly Weather History & Observations

Time (CDT) Temp. Heat Index Dew Point Humidity Pressure Visibility Wind Dir Wind Speed Gust Speed Precip Events Conditions
12:53 AM 78.1 °F - 73.9 °F 87% 29.97 in 10.0 mi Calm Calm - N/A   Partly Cloudy
1:53 AM 75.0 °F - 73.9 °F 96% 29.97 in 9.0 mi Calm Calm - N/A   Scattered Clouds
2:53 AM 75.9 °F - 75.0 °F 97% 29.98 in 9.0 mi WSW 3.5 mph - 0.03 in Rain Light Rain
3:53 AM 75.0 °F - 73.9 °F 96% 29.97 in 8.0 mi NNE 5.8 mph - 0.00 in   Clear
4:09 AM 75.2 °F - 73.4 °F 94% 29.97 in 9.0 mi NNE 4.6 mph - N/A Thunderstorm Partly Cloudy
4:21 AM 75.2 °F - 73.4 °F 94% 29.99 in 1.8 mi SSE 17.3 mph 24.2 mph 0.20 in Rain , Thunderstorm Rain
4:29 AM 75.2 °F - 71.6 °F 89% 29.99 in 1.0 mi NE 8.1 mph - 0.42 in Rain , Thunderstorm Heavy Thunderstorms and Rain
4:34 AM 73.4 °F - 71.6 °F 94% 29.99 in 4.0 mi NE 6.9 mph - 0.43 in Rain , Thunderstorm Thunderstorms and Rain
4:53 AM 75.0 °F - 72.0 °F 90% 29.99 in 6.0 mi ENE 6.9 mph - 0.46 in Rain , Thunderstorm Thunderstorms and Rain
5:09 AM 73.4 °F - 71.6 °F 94% 29.99 in 10.0 mi East 4.6 mph - 0.00 in Thunderstorm Scattered Clouds
5:30 AM 73.4 °F - 71.6 °F 94% 29.98 in 10.0 mi East 5.8 mph - 0.00 in Rain Light Rain
5:53 AM 73.9 °F - 72.0 °F 93% 29.99 in 10.0 mi ESE 5.8 mph - 0.00 in Rain Light Rain
6:53 AM 73.9 °F - 72.0 °F 93% 30.00 in 10.0 mi East 3.5 mph - 0.01 in Rain Light Rain
7:53 AM 75.0 °F - 73.0 °F 94% 30.01 in 10.0 mi NE 3.5 mph - 0.00 in   Clear
8:53 AM 78.1 °F - 75.0 °F 90% 30.02 in 10.0 mi NE 4.6 mph - N/A   Clear
9:53 AM 81.0 °F 87.3 °F 75.9 °F 85% 30.04 in 10.0 mi East 4.6 mph - 0.01 in   Partly Cloudy
10:53 AM 82.9 °F 90.8 °F 75.9 °F 79% 30.04 in 10.0 mi East 6.9 mph - N/A   Clear
11:53 AM 87.1 °F 95.4 °F 73.9 °F 65% 30.05 in 10.0 mi East 11.5 mph - N/A   Partly Cloudy
12:53 PM 87.1 °F 94.5 °F 73.0 °F 63% 30.05 in 10.0 mi ESE 10.4 mph - N/A   Partly Cloudy
2:53 PM 87.1 °F 94.5 °F 73.0 °F 63% 30.01 in 10.0 mi East 11.5 mph 20.7 mph N/A   Scattered Clouds
3:53 PM 88.0 °F 94.7 °F 72.0 °F 59% 30.00 in 10.0 mi ESE 11.5 mph 19.6 mph N/A   Clear
4:53 PM 87.1 °F 96.3 °F 75.0 °F 67% 29.99 in 10.0 mi ESE 9.2 mph 19.6 mph N/A   Scattered Clouds
5:53 PM 86.0 °F 93.8 °F 73.9 °F 67% 30.00 in 10.0 mi ESE 16.1 mph 23.0 mph N/A   Partly Cloudy
6:53 PM 84.0 °F 91.2 °F 73.9 °F 72% 30.00 in 10.0 mi ESE 10.4 mph - N/A   Partly Cloudy
7:53 PM 82.0 °F 87.4 °F 73.0 °F 74% 30.01 in 10.0 mi ESE 4.6 mph - N/A   Clear
8:53 PM 80.1 °F 84.2 °F 73.0 °F 79% 30.01 in 10.0 mi Calm Calm - N/A   Clear
9:53 PM 78.1 °F - 73.0 °F 84% 30.03 in 10.0 mi Calm Calm - N/A   Clear
10:53 PM 75.0 °F - 73.0 °F 94% 30.04 in 10.0 mi Calm Calm - N/A   Partly Cloudy
11:53 PM 73.9 °F - 72.0 °F 93% 30.04 in 10.0 mi ENE 3.5 mph - N/A   Clear